Temperature
13 13 13 13 13 13 13 13 13 14 14 14 15 15 15 16 16 16 15 15 15 15 15 15 15 15 14 14 14 14 14 14 14 15 15 15 15 15 15 15 15 15 15
13 13 13 13 14 14 14 14 14 15 15 15 15 16 16 16 16 16 15 15 15 15 15 15 15 15 14 14 14 14 14 14 14 14 14 15 15 14 14 14 15 15 15
13 14 14 14 14 14 14 15 15 15 15 15 15 16 16 16 16 16 15 15 15 15 15 15 15 15 14 14 14 14 14 14 14 14 14 14 14 14 14 14 14 14 15
13 14 14 14 14 14 14 15 15 15 15 15 15 15 16 16 15 15 15 15 15 15 15 15 15 15 14 14 14 14 14 14 14 14 14 14 14 14 14 14 14 14 14
13 13 13 13 14 14 14 14 14 15 15 15 15 15 15 15 15 15 15 15 15 15 15 15 15 15 15 15 14 14 14 14 14 14 14 14 14 14 14 14 14 14 14
12 12 12 13 13 13 13 13 13 14 14 14 15 15 15 15 15 15 15 15 15 15 15 15 15 15 15 15 15 15 14 14 14 14 13 13 13 13 13 13 13 13 13
12 12 12 12 12 12 12 12 12 13 13 13 13 13 14 14 14 14 15 15 15 15 15 15 15 15 15 15 15 15 14 14 14 14 13 13 13 13 13 13 13 13 13
12 12 12 12 12 12 12 12 12 12 12 12 12 12 12 13 13 13 14 14 14 14 14 14 14 14 14 14 14 14 14 14 14 14 14 13 13 13 13 13 13 13 13
12 12 12 11 11 11 11 11 11 11 11 11 11 11 11 12 12 12 13 13 13 13 13 14 14 14 14 14 14 14 14 14 14 14 14 14 14 13 13 13 12 12 12
12 12 11 11 11 11 11 11 11 11 11 11 11 11 11 11 11 12 12 12 12 13 13 13 13 13 14 14 14 14 14 14 14 14 14 14 14 13 13 13 12 12 12
12 12 12 12 12 11 11 11 11 11 11 10 10 10 10 10 11 11 11 12 12 12 12 12 12 13 13 13 14 14 14 14 13 13 13 13 13 13 13 13 12 12 12
13 12 12 12 12 11 11 11 11 10 10 10 10 10 10 10 10 11 11 11 11 11 11 11 12 12 13 13 13 13 13 13 13 13 13 13 13 12 12 12 12 12 12
13 13 13 12 12 11 11 11 10 10 10 10 10 10 10 10 10 11 11 10 10 10 11 11 11 12 12 12 13 13 13 13 13 13 13 13 12 12 12 12 12 12 11
14 13 13 12 12 11 11 11 11 11 11 10 10 10 10 10 10 11 10 10 10 10 10 10 11 11 11 12 12 12 12 12 12 12 12 12 12 12 12 11 11 11 11
14 14 13 13 12 11 11 11 11 10 10 10 10 10 10 10 10 9 9 10 10 10 10 10 10 11 11 11 11 11 12 12 12 12 12 12 11 11 11 11 11 11 11
14 14 13 12 12 11 11 11 10 10 10 10 10 10 10 9 9 9 9 9 10 10 10 10 10 10 10 10 11 11 11 11 11 11 11 11 11 11 10 10 10 10 10
14 14 13 12 12 12 11 11 10 10 10 10 10 9 9 9 9 9 9 9 9 10 10 9 10 10 10 10 10 10 10 10 11 11 10 10 10 10 10 10 10 10 9
14 13 13 12 12 12 11 11 11 10 10 10 9 9 9 9 9 9 9 9 9 9 9 9 9 9 9 10 10 10 10 10 10 10 10 10 10 10 9 9 9 9 9
14 13 13 12 12 12 12 11 11 10 10 9 9 9 8 8 8 8 9 9 9 9 9 9 9 9 9 9 9 9 9 9 9 9 9 9 9 9 8 8 8 8 8
14 13 13 12 12 12 12 12 11 11 10 9 9 9 9 8 8 8 8 8 8 8 8 8 9 9 9 9 9 9 9 9 9 9 9 8 8 8 8 8 8 8 8
14 14 13 13 12 12 12 12 11 11 10 10 9 9 9 8 8 8 8 8 8 8 8 8 8 8 9 9 8 9 9 9 8 8 8 7 7 7 7 7 7 7 7
14 14 13 13 12 12 12 12 11 11 10 10 9 9 8 8 8 8 8 8 8 8 8 9 9 9 8 8 8 8 8 8 8 7 7 7 7 7 7 7 7 7 7
14 14 14 13 13 12 12 12 11 11 10 10 9 9 9 9 9 9 8 8 8 9 9 9 9 9 9 9 9 9 8 8 8 7 6 6 6 6 6 6 6 6 6
14 14 13 13 13 13 12 12 11 11 10 10 10 9 9 9 9 9 9 9 9 9 9 9 9 9 9 9 9 9 9 8 8 7 6 6 6 6 6 6 6 6 6
14 14 13 13 13 13 12 12 12 11 11 10 10 9 9 9 9 9 9 9 9 9 9 9 9 9 9 9 9 9 9 8 8 7 7 6 6 6 6 6 6 6 6
14 13 13 13 13 13 13 12 12 12 11 10 10 9 9 9 9 9 9 9 9 9 9 9 9 9 9 10 9 9 9 8 8 7 7 7 6 6 5 5 5 5 5
Wind_Speed
8 7 6 5 4 2 1 1 2 3 4 5 7 7 7 7 7 6 4 3 3 4 5 6 6 5 4 4 4 4 4 5 5 4 3 3 2 2 3 7 8 9 15
6 6 6 6 5 4 3 3 3 4 4 6 6 6 6 5 6 7 7 5 4 5 5 3 3 3 3 3 3 4 5 5 5 5 4 3 4 3 3 5 5 8 11
5 6 6 6 5 5 5 5 5 5 6 6 5 6 5 3 4 4 6 6 7 7 6 4 3 2 3 2 3 4 4 4 4 4 4 3 3 3 3 4 5 4 6
5 5 6 6 6 5 5 5 5 5 5 6 5 4 3 1 2 2 2 3 4 5 5 6 5 3 2 1 1 1 2 3 2 3 2 2 2 2 2 3 4 4 4
6 7 6 6 6 6 6 6 6 7 7 8 8 8 8 7 9 9 7 6 5 4 4 4 3 6 7 4 2 2 2 0 1 1 1 1 1 1 3 3 3 3 3
8 8 8 8 8 8 8 7 7 8 8 9 9 10 10 10 13 13 10 7 7 6 4 3 3 7 8 6 5 3 1 1 1 0 1 1 2 2 1 1 1 1 2
8 8 8 8 8 8 9 9 8 8 9 9 9 9 9 11 16 15 14 8 7 7 6 4 2 4 8 7 7 6 4 3 2 0 1 0 1 1 2 1 1 1 2
7 7 7 8 7 7 7 8 8 7 7 7 8 8 7 10 16 16 16 8 6 6 6 4 2 1 2 2 4 5 5 6 5 2 2 3 4 3 3 1 1 0 1
7 7 7 7 7 7 8 7 6 6 6 6 6 7 7 8 14 16 16 7 6 6 4 3 4 4 5 4 2 1 2 3 5 7 7 6 6 5 3 2 1 1 1
7 7 7 6 6 7 7 7 6 5 5 4 4 5 6 6 10 15 15 7 8 7 5 5 8 7 6 6 4 3 3 2 3 3 3 3 3 3 2 0 1 1 1
5 5 5 6 5 6 6 6 6 5 5 5 5 5 5 5 8 12 13 7 6 7 5 5 6 8 7 7 5 3 3 3 2 2 2 2 2 3 2 1 1 1 0
2 3 4 4 6 7 6 6 6 6 6 7 6 6 5 6 8 11 12 10 8 5 5 4 4 7 6 5 3 3 4 4 2 2 2 2 2 2 2 1 1 0 0
2 2 2 4 5 6 7 7 6 6 6 6 6 6 6 7 9 16 15 13 10 5 3 4 5 6 6 3 1 0 1 1 1 2 3 2 2 2 3 3 3 3 2
2 2 4 6 6 6 6 6 6 7 6 6 7 7 6 7 9 10 10 9 9 6 4 3 3 4 3 3 1 1 1 1 2 3 3 3 3 3 3 2 2 2 2
2 4 5 5 5 6 6 6 6 6 5 5 5 6 6 7 9 12 10 8 7 6 5 4 4 3 4 4 4 4 4 4 4 3 4 3 3 3 2 2 2 3 3
4 5 5 4 3 4 5 5 8 6 6 7 7 6 5 7 10 12 13 15 14 12 8 7 8 7 7 7 6 6 6 5 5 4 4 4 4 4 3 3 3 4 4
4 5 5 4 3 3 3 4 4 3 3 4 5 7 7 9 11 13 11 12 16 14 10 9 9 9 8 8 8 7 7 6 6 6 6 5 5 5 4 4 5 4 4
4 5 4 3 3 3 3 3 3 3 2 2 1 3 5 7 11 13 12 9 9 10 8 8 8 8 8 8 8 7 7 7 7 7 6 6 6 5 5 4 4 5 4
5 4 3 3 2 3 2 3 3 4 4 3 2 2 3 3 6 11 10 7 7 7 7 7 7 7 7 7 7 7 7 7 7 6 6 6 6 5 5 4 4 6 5
5 5 3 1 0 2 1 3 4 4 4 4 5 4 5 4 5 6 6 6 6 6 6 6 7 7 7 6 6 6 6 6 7 6 5 5 5 5 5 5 5 4 4
3 4 2 3 1 2 1 2 3 4 4 4 4 3 4 4 4 5 5 5 5 5 5 5 5 6 6 6 6 6 7 6 5 5 5 5 4 4 4 4 5 5 5
3 4 5 3 2 2 2 1 4 4 5 5 3 3 2 3 3 4 4 4 4 4 4 4 3 3 4 4 5 5 5 5 5 5 5 5 4 4 5 5 5 5 5
6 3 2 3 4 4 2 1 3 4 4 4 3 3 3 3 3 3 3 3 3 3 5 4 2 2 4 6 8 6 6 5 5 5 4 4 4 4 4 5 6 5 5
8 5 3 2 4 5 4 3 3 4 4 3 3 3 3 3 3 3 3 2 2 4 5 4 4 5 8 9 11 11 10 9 10 9 6 4 4 5 5 5 5 5 4
7 6 4 3 3 4 4 4 4 4 5 4 4 3 3 4 4 4 4 3 3 3 3 3 3 6 11 12 11 9 10 10 11 12 8 4 5 5 5 5 4 5 5
7 6 5 3 2 3 3 4 4 5 5 5 4 4 4 4 4 4 4 3 4 3 3 4 4 7 10 10 8 9 10 11 13 13 8 6 5 5 4 3 5 5 5
Wind_Direction
34 37 45 53 63 75 92 168 228 242 238 232 235 233 222 203 191 183 198 227 242 261 224 215 224 222 218 223 227 231 227 212 228 250 222 204 176 201 184 234 239 209 207
25 27 26 24 21 13 352 325 304 289 274 259 256 249 244 203 184 174 187 202 221 253 271 263 239 204 202 224 219 227 231 224 217 238 234 215 214 219 208 238 244 223 211
21 23 16 7 359 350 342 340 333 317 296 281 271 261 244 200 185 188 191 202 217 222 225 232 253 213 197 213 215 226 232 236 220 225 242 222 224 224 226 243 254 260 255
31 31 21 7 359 356 354 348 341 335 327 333 333 330 335 45 37 342 296 250 245 244 229 209 203 208 154 148 201 221 230 233 230 229 244 245 234 223 195 224 249 252 259
37 35 29 26 19 17 17 15 13 9 10 10 10 20 27 38 28 12 346 319 289 267 262 251 178 129 109 99 84 43 20 294 214 215 240 246 232 204 214 210 235 270 274
46 43 37 36 32 30 28 26 31 33 29 28 30 35 41 36 20 16 358 330 317 306 289 268 170 154 152 151 154 151 114 37 41 147 193 243 257 222 204 193 220 287 288
47 45 40 37 36 31 28 25 32 43 38 36 34 36 43 32 17 7 356 328 302 297 300 294 259 168 165 178 189 194 201 200 194 27 6 218 106 119 129 139 187 235 267
41 47 44 37 32 30 31 35 29 32 39 40 31 28 31 30 15 4 351 319 288 282 282 282 292 174 167 147 174 195 196 187 195 195 70 79 79 71 80 107 146 230 280
34 38 39 33 26 23 25 33 36 31 35 49 31 23 22 23 15 7 359 331 331 325 322 7 38 63 59 48 25 44 121 134 136 114 102 102 98 85 67 55 53 27 320
30 28 27 25 26 28 21 21 28 30 30 57 50 33 32 19 16 15 10 1 356 347 355 50 60 65 53 38 21 33 66 77 118 137 143 158 180 171 166 157 95 69 329
35 23 17 11 27 48 29 22 24 20 21 29 41 34 35 28 16 15 12 11 352 346 6 40 50 45 40 31 25 36 66 23 26 105 116 115 118 132 164 201 140 139 307
70 30 11 36 38 37 32 30 26 17 26 29 24 21 14 21 20 3 358 357 350 350 5 22 28 17 10 1 20 62 40 10 5 71 89 83 77 73 65 69 84 95 135
110 53 27 62 69 51 33 33 29 28 28 25 19 16 13 17 12 5 359 356 355 345 346 354 347 351 343 329 186 97 335 324 31 90 102 101 86 76 62 44 29 30 30
142 94 68 63 68 69 45 37 41 29 24 20 16 11 10 17 12 2 354 354 354 356 352 346 344 358 357 5 83 199 215 87 90 101 106 98 87 67 51 42 32 12 29
93 99 87 80 75 87 74 46 47 58 42 22 7 3 13 11 358 355 3 3 358 2 358 9 22 23 32 38 42 47 55 67 70 76 91 92 84 80 60 37 32 30 44
43 75 70 79 80 107 123 96 53 67 61 52 38 26 36 17 358 5 9 14 20 27 37 38 34 35 41 44 46 46 49 52 59 70 75 77 76 75 61 36 34 41 45
37 70 74 55 54 68 112 140 139 99 53 40 35 36 31 15 14 15 20 28 33 38 46 42 38 37 38 40 43 45 44 42 51 59 61 58 58 57 55 46 37 35 38
71 84 84 79 54 61 58 71 102 132 140 148 69 28 21 18 19 21 30 41 39 40 40 39 37 35 35 36 38 40 41 39 43 48 48 45 44 48 46 44 45 33 29
52 68 65 72 64 80 77 80 80 80 82 77 68 26 351 1 24 30 35 44 46 41 38 36 32 30 31 32 33 38 43 41 39 42 38 34 32 36 37 37 44 40 37
94 77 45 353 127 105 81 90 91 84 79 73 58 25 0 24 40 32 33 35 43 47 44 37 30 29 26 25 28 33 41 41 33 33 30 24 22 31 36 37 36 38 36
141 141 178 273 260 99 93 105 111 104 96 92 89 54 10 33 45 39 38 39 39 43 51 49 35 26 23 20 24 33 41 39 31 20 17 15 16 21 30 40 37 40 36
316 180 193 201 127 86 29 92 117 118 118 122 139 144 78 63 52 47 48 48 48 55 58 61 49 35 34 29 24 28 42 40 24 12 7 8 14 23 34 42 41 47 37
308 296 208 162 135 132 233 221 132 127 127 129 132 134 129 111 94 75 68 59 61 61 62 57 44 30 38 40 46 42 36 19 359 355 359 5 17 31 41 47 52 59 45
307 298 279 214 166 172 199 178 152 141 138 137 136 131 131 128 120 109 100 79 80 85 81 57 29 46 63 58 59 53 36 16 5 353 348 11 32 37 52 60 57 51 43
293 293 281 257 192 180 191 176 172 162 155 155 149 143 143 135 129 129 130 122 111 112 117 110 73 62 74 71 62 46 32 26 20 9 360 27 48 54 68 68 64 61 54
281 283 282 270 230 199 190 183 183 169 157 157 159 158 154 144 142 141 136 134 135 130 117 103 89 85 89 79 60 44 33 26 19 16 32 57 60 52 61 70 75 72 76
Height
1502 1502 1502 1502 1502 1503 1504 1505 1506 1507 1509 1510 1512 1513 1515 1516 1518 1519 1521 1522 1523 1523 1524 1524 1524 1524 1524 1525 1525 1525 1526 1526 1526 1528 1529 1530 1531 1531 1533 1534 1536 1536 1537
1506 1506 1506 1506 1506 1506 1507 1508 1508 1509 1510 1511 1512 1513 1514 1515 1517 1518 1519 1520 1521 1522 1523 1523 1523 1523 1522 1522 1521 1521 1522 1522 1523 1524 1525 1526 1527 1528 1529 1530 1532 1533 1534
1509 1509 1508 1509 1509 1509 1509 1509 1509 1509 1509 1510 1510 1511 1512 1514 1515 1517 1518 1519 1519 1520 1521 1521 1521 1521 1520 1519 1519 1518 1518 1519 1519 1520 1521 1522 1523 1524 1525 1526 1528 1529 1530
1511 1511 1510 1510 1510 1510 1510 1509 1509 1509 1509 1509 1509 1509 1510 1511 1512 1514 1515 1516 1517 1518 1519 1519 1519 1519 1518 1517 1517 1516 1516 1516 1517 1517 1518 1519 1520 1521 1521 1522 1524 1525 1526
1514 1513 1512 1512 1511 1510 1510 1509 1509 1508 1508 1508 1508 1508 1508 1508 1509 1510 1512 1513 1514 1515 1516 1516 1517 1517 1516 1516 1515 1515 1514 1514 1515 1515 1515 1516 1517 1517 1518 1519 1520 1521 1522
1517 1516 1515 1513 1512 1511 1511 1510 1509 1508 1507 1507 1506 1507 1506 1507 1507 1508 1509 1510 1511 1512 1512 1513 1514 1514 1514 1514 1514 1514 1513 1513 1513 1514 1514 1514 1515 1515 1516 1516 1517 1517 1518
1522 1520 1518 1516 1515 1513 1512 1511 1510 1509 1508 1507 1506 1505 1505 1505 1505 1505 1505 1506 1507 1508 1509 1510 1511 1511 1512 1512 1513 1513 1513 1513 1514 1514 1514 1514 1514 1514 1514 1514 1515 1515 1516
1526 1524 1522 1520 1518 1517 1515 1514 1512 1511 1509 1508 1507 1506 1505 1504 1504 1503 1503 1503 1503 1504 1506 1507 1508 1509 1510 1510 1511 1512 1512 1513 1513 1513 1513 1514 1514 1514 1514 1514 1514 1514 1514
1530 1528 1526 1524 1522 1520 1518 1516 1514 1513 1511 1510 1509 1508 1506 1505 1503 1502 1501 1501 1501 1501 1502 1503 1504 1505 1506 1508 1510 1510 1511 1512 1513 1513 1513 1514 1514 1514 1514 1514 1514 1513 1513
1533 1531 1529 1527 1524 1522 1520 1518 1517 1515 1514 1512 1511 1509 1508 1506 1504 1502 1501 1500 1500 1500 1500 1500 1501 1502 1503 1505 1507 1509 1510 1511 1512 1513 1513 1514 1514 1514 1514 1514 1514 1514 1513
1535 1533 1531 1529 1527 1524 1522 1520 1518 1517 1516 1514 1513 1511 1509 1508 1505 1503 1501 1500 1499 1499 1498 1498 1498 1499 1501 1503 1505 1507 1508 1510 1511 1512 1513 1513 1514 1514 1514 1514 1514 1514 1513
1537 1535 1533 1531 1529 1526 1524 1521 1520 1518 1517 1516 1515 1513 1512 1509 1507 1504 1502 1500 1498 1498 1497 1497 1497 1498 1499 1501 1502 1504 1507 1508 1510 1511 1512 1513 1514 1514 1514 1514 1514 1514 1513
1537 1536 1534 1532 1530 1528 1525 1523 1521 1520 1519 1518 1516 1515 1513 1511 1508 1505 1502 1500 1498 1497 1496 1496 1496 1496 1497 1499 1500 1503 1505 1507 1508 1510 1511 1512 1513 1514 1514 1514 1514 1514 1513
1538 1536 1535 1534 1532 1530 1527 1525 1524 1522 1521 1520 1518 1516 1515 1512 1509 1506 1503 1500 1498 1497 1496 1496 1496 1496 1497 1498 1500 1502 1504 1506 1508 1509 1511 1512 1513 1514 1514 1514 1514 1514 1513
1539 1538 1536 1535 1533 1531 1530 1528 1526 1525 1524 1522 1521 1519 1516 1514 1512 1509 1506 1503 1500 1499 1498 1498 1497 1498 1498 1499 1501 1502 1504 1506 1507 1509 1510 1512 1513 1513 1514 1514 1514 1514 1513
1540 1538 1537 1536 1535 1534 1532 1531 1529 1528 1527 1525 1523 1521 1519 1517 1515 1512 1509 1507 1504 1503 1501 1500 1500 1501 1501 1502 1503 1504 1506 1507 1508 1510 1511 1512 1513 1514 1514 1514 1514 1514 1513
1541 1539 1538 1538 1537 1536 1535 1533 1532 1531 1530 1528 1526 1524 1522 1520 1518 1516 1513 1511 1509 1507 1505 1505 1504 1505 1505 1506 1506 1507 1508 1509 1510 1511 1512 1513 1514 1514 1514 1514 1514 1513 1513
1541 1540 1539 1539 1538 1538 1537 1536 1534 1533 1532 1530 1529 1527 1525 1523 1521 1519 1517 1516 1513 1511 1510 1509 1509 1509 1509 1510 1510 1511 1511 1512 1512 1513 1513 1514 1514 1514 1514 1514 1513 1513 1512
1542 1541 1540 1540 1540 1539 1538 1537 1536 1535 1534 1533 1531 1529 1527 1526 1524 1522 1520 1518 1517 1515 1514 1514 1513 1513 1513 1513 1513 1513 1513 1513 1514 1514 1514 1514 1514 1514 1514 1514 1513 1513 1512
1542 1541 1540 1540 1540 1540 1539 1539 1538 1537 1535 1534 1532 1531 1529 1528 1526 1524 1523 1521 1520 1518 1517 1516 1516 1515 1515 1515 1514 1514 1514 1514 1514 1514 1514 1514 1514 1514 1514 1514 1514 1513 1512
1542 1541 1541 1540 1541 1540 1540 1539 1538 1537 1536 1535 1534 1532 1531 1529 1528 1526 1524 1523 1521 1520 1519 1518 1517 1516 1516 1515 1515 1514 1514 1513 1513 1513 1514 1514 1514 1515 1514 1514 1514 1512 1511
1542 1542 1541 1541 1540 1540 1540 1539 1539 1538 1537 1536 1535 1534 1532 1531 1529 1527 1526 1524 1523 1521 1520 1519 1518 1517 1516 1516 1515 1514 1514 1513 1513 1513 1514 1514 1515 1515 1515 1514 1513 1512 1511
1541 1542 1541 1540 1539 1539 1539 1539 1539 1538 1537 1536 1535 1535 1533 1532 1530 1529 1527 1526 1524 1523 1522 1521 1520 1519 1518 1516 1515 1515 1514 1514 1514 1514 1514 1515 1515 1515 1515 1514 1513 1512 1510
1539 1540 1540 1540 1539 1538 1538 1538 1538 1538 1537 1536 1536 1535 1534 1533 1531 1530 1528 1527 1526 1525 1524 1523 1522 1520 1519 1518 1517 1516 1515 1515 1515 1515 1515 1515 1515 1515 1515 1514 1513 1512 1511
1536 1537 1538 1538 1538 1537 1537 1537 1537 1537 1536 1536 1535 1534 1534 1533 1532 1531 1529 1528 1527 1526 1525 1524 1523 1522 1521 1520 1518 1517 1517 1516 1516 1516 1516 1516 1516 1516 1515 1515 1514 1513 1512
1534 1534 1535 1535 1536 1536 1536 1535 1535 1535 1535 1535 1534 1533 1533 1532 1531 1531 1530 1529 1528 1527 1527 1526 1525 1524 1523 1522 1520 1519 1519 1518 1518 1518 1517 1517 1517 1517 1517 1516 1516 1515 1514